Location: Cactus School
(34.5700°N, 118.0931°W)
Time: 11:22:38
(UTC-07:00)

Vanguard 2 - Visible Passes

Search period start: 23 April 2024 00:00
Search period end: 03 May 2024 00:00
Orbit: 552 x 2916 km, 32.9° (Epoch: 23 April)

Date Brightness Start Highest point End Pass type
(mag) Time Alt. Az. Time Alt. Az. Time Alt. Az.
23 Apr 10.4 00:56:48 45° ESE 00:56:48 45° ESE 01:08:49 10° E visible
23 Apr 10.1 02:57:53 49° WSW 03:03:58 82° S 03:21:57 10° E visible
23 Apr 10.4 04:59:51 10° W 05:17:12 81° S 05:33:34 10° ESE visible
23 Apr 11.5 23:08:49 10° E 23:08:49 10° E 23:08:56 10° E visible
24 Apr 10.1 01:09:54 56° ESE 01:09:54 56° ESE 01:23:51 10° E visible
24 Apr 10.1 03:10:59 40° WSW 03:18:54 84° S 03:36:53 10° E visible
24 Apr 10.4 05:14:45 10° W 05:32:05 77° SSW 05:48:18 10° ESE visible
24 Apr 11.3 23:21:53 16° E 23:21:53 16° E 23:24:32 10° E visible
25 Apr 9.9 01:22:59 67° SE 01:22:59 67° SE 01:38:49 10° E visible
25 Apr 10.1 03:24:04 31° W 03:33:52 85° S 03:51:48 10° E visible
25 Apr 10.4 05:29:38 10° W 05:46:52 71° SSW 06:02:53 10° ESE visible
25 Apr 11.0 23:34:58 22° E 23:34:58 22° E 23:39:49 10° E visible
26 Apr 9.7 01:36:04 77° S 01:36:11 77° SSE 01:53:47 10° E visible
26 Apr 10.2 03:37:09 24° W 03:48:48 84° S 04:06:41 10° E visible
26 Apr 10.7 23:48:04 28° E 23:48:04 28° E 23:54:55 10° E visible
27 Apr 9.7 01:49:09 73° SW 01:50:59 81° S 02:08:44 10° E visible
27 Apr 10.2 03:50:15 17° W 04:03:42 81° S 04:21:30 10° ESE visible
27 Apr10.922:00:04ENE22:00:04ENE21:37:31SSWvisible
28 Apr 10.4 00:01:09 36° E 00:01:09 36° E 00:09:56 10° E visible
28 Apr 9.8 02:02:15 61° WSW 02:05:50 84° S 02:23:40 10° E visible
28 Apr 10.2 04:03:20 11° W 04:18:33 76° SSW 04:36:12 10° ESE visible
28 Apr10.622:13:10E22:13:10E21:52:41SSWvisible
29 Apr 10.1 00:14:17 46° E 00:14:17 46° E 00:24:53 10° E visible
29 Apr 9.8 02:15:22 49° W 02:20:42 84° S 02:38:35 10° E visible
29 Apr 10.2 04:17:48 10° W 04:33:19 70° SSW 04:50:46 10° ESE visible
29 Apr 10.3 22:07:36 10° SSW 22:26:20 - E 22:08:02 12° SSW visible
30 Apr 9.8 00:27:26 57° E 00:27:26 57° E 00:39:49 10° E visible
30 Apr 9.9 02:28:32 38° W 02:35:33 83° S 02:53:28 10° E visible
30 Apr 10.3 04:32:36 10° W 04:47:59 63° SSW 05:05:10 10° SE visible
30 Apr 10.0 20:20:37 10° SE 20:21:57 10° SE 20:22:16 10° SE visible
30 Apr 9.9 22:21:38 10° SW 22:39:32 13° E 22:40:52 10° E visible
01 May 9.6 00:40:39 69° ESE 00:40:39 69° ESE 00:54:44 10° E visible
01 May 9.9 02:41:45 30° W 02:50:23 80° S 03:08:17 10° ESE visible
01 May 10.4 04:47:26 10° W 05:02:35 55° SSW 05:19:22 10° SE visible
01 May 9.7 20:31:56 10° S 20:35:55 16° SE 20:37:53 15° ESE visible
01 May 9.6 22:35:50 10° SW 22:52:51 18° E 22:55:50 10° E visible
02 May 9.4 00:53:58 81° SE 00:53:58 81° SE 01:09:39 10° E visible
02 May 9.9 02:55:04 23° W 03:05:10 75° SSW 03:22:58 10° ESE visible
02 May 10.5 05:02:21 10° W 05:17:06 47° SSW 05:33:19 10° SE visible
02 May 9.4 20:45:02 10° S 20:49:56 23° SE 20:53:35 18° ESE visible
02 May 9.2 22:50:11 10° WSW 23:06:20 23° E 23:10:44 10° E visible
